<?xml version="1.0" encoding="UTF-8" standalone="no" ?>
<gpx xmlns="http://www.topografix.com/GPX/1/1" creator="http://nakarte.me" xmlns:xsi="http://www.w3.org/2001/XMLSchema-instance" xsi:schemaLocation="http://www.topografix.com/GPX/1/1 http://www.topografix.com/GPX/1/1/gpx.xsd" version="1.1">
	<trk>
		<name>Большая Валдайская тропа</name>
		<trkseg>
			<trkpt lat="57.956532" lon="33.255016"><time>1970-01-01T00:00:01.000Z</time></trkpt>
			<trkpt lat="57.955974" lon="33.255617"><time>1970-01-01T00:00:01.000Z</time></trkpt>
			<trkpt lat="57.955481" lon="33.256068"><time>1970-01-01T00:00:01.000Z</time></trkpt>
			<trkpt lat="57.955009" lon="33.255875"><time>1970-01-01T00:00:01.000Z</time></trkpt>
			<trkpt lat="57.954408" lon="33.259930"><time>1970-01-01T00:00:01.000Z</time></trkpt>
			<trkpt lat="57.953550" lon="33.269071"><time>1970-01-01T00:00:01.000Z</time></trkpt>
			<trkpt lat="57.953249" lon="33.268964"><time>1970-01-01T00:00:01.000Z</time></trkpt>
			<trkpt lat="57.951940" lon="33.265702"><time>1970-01-01T00:00:01.000Z</time></trkpt>
			<trkpt lat="57.951726" lon="33.264544"><time>1970-01-01T00:00:01.000Z</time></trkpt>
			<trkpt lat="57.951318" lon="33.263642"><time>1970-01-01T00:00:01.000Z</time></trkpt>
			<trkpt lat="57.948636" lon="33.263771"><time>1970-01-01T00:00:01.000Z</time></trkpt>
			<trkpt lat="57.947177" lon="33.264737"><time>1970-01-01T00:00:01.000Z</time></trkpt>
			<trkpt lat="57.942070" lon="33.263771"><time>1970-01-01T00:00:01.000Z</time></trkpt>
			<trkpt lat="57.939430" lon="33.265874"><time>1970-01-01T00:00:01.000Z</time></trkpt>
			<trkpt lat="57.937821" lon="33.265316"><time>1970-01-01T00:00:01.000Z</time></trkpt>
			<trkpt lat="57.937113" lon="33.265659"><time>1970-01-01T00:00:01.000Z</time></trkpt>
			<trkpt lat="57.936834" lon="33.265187"><time>1970-01-01T00:00:01.000Z</time></trkpt>
			<trkpt lat="57.934409" lon="33.267634"><time>1970-01-01T00:00:01.000Z</time></trkpt>
			<trkpt lat="57.933272" lon="33.268427"><time>1970-01-01T00:00:01.000Z</time></trkpt>
			<trkpt lat="57.932650" lon="33.268385"><time>1970-01-01T00:00:01.000Z</time></trkpt>
			<trkpt lat="57.931791" lon="33.266754"><time>1970-01-01T00:00:01.000Z</time></trkpt>
			<trkpt lat="57.930289" lon="33.265187"><time>1970-01-01T00:00:01.000Z</time></trkpt>
			<trkpt lat="57.929388" lon="33.266797"><time>1970-01-01T00:00:01.000Z</time></trkpt>
			<trkpt lat="57.928916" lon="33.267333"><time>1970-01-01T00:00:01.000Z</time></trkpt>
			<trkpt lat="57.925225" lon="33.274779"><time>1970-01-01T00:00:01.000Z</time></trkpt>
			<trkpt lat="57.921084" lon="33.269693"><time>1970-01-01T00:00:01.000Z</time></trkpt>
			<trkpt lat="57.920033" lon="33.269779"><time>1970-01-01T00:00:01.000Z</time></trkpt>
			<trkpt lat="57.919797" lon="33.270123"><time>1970-01-01T00:00:01.000Z</time></trkpt>
			<trkpt lat="57.919325" lon="33.270402"><time>1970-01-01T00:00:01.000Z</time></trkpt>
			<trkpt lat="57.919153" lon="33.270402"><time>1970-01-01T00:00:01.000Z</time></trkpt>
			<trkpt lat="57.918917" lon="33.270144"><time>1970-01-01T00:00:01.000Z</time></trkpt>
			<trkpt lat="57.918767" lon="33.269693"><time>1970-01-01T00:00:01.000Z</time></trkpt>
			<trkpt lat="57.918745" lon="33.269522"><time>1970-01-01T00:00:01.000Z</time></trkpt>
			<trkpt lat="57.919046" lon="33.267805"><time>1970-01-01T00:00:01.000Z</time></trkpt>
			<trkpt lat="57.919453" lon="33.264694"><time>1970-01-01T00:00:01.000Z</time></trkpt>
			<trkpt lat="57.919561" lon="33.263471"><time>1970-01-01T00:00:01.000Z</time></trkpt>
			<trkpt lat="57.919668" lon="33.262999"><time>1970-01-01T00:00:01.000Z</time></trkpt>
			<trkpt lat="57.919904" lon="33.262591"><time>1970-01-01T00:00:01.000Z</time></trkpt>
			<trkpt lat="57.920247" lon="33.262205"><time>1970-01-01T00:00:01.000Z</time></trkpt>
			<trkpt lat="57.920505" lon="33.261754"><time>1970-01-01T00:00:01.000Z</time></trkpt>
			<trkpt lat="57.920848" lon="33.260531"><time>1970-01-01T00:00:01.000Z</time></trkpt>
			<trkpt lat="57.921384" lon="33.259093"><time>1970-01-01T00:00:01.000Z</time></trkpt>
			<trkpt lat="57.921685" lon="33.257999"><time>1970-01-01T00:00:01.000Z</time></trkpt>
			<trkpt lat="57.921814" lon="33.257248"><time>1970-01-01T00:00:01.000Z</time></trkpt>
			<trkpt lat="57.921964" lon="33.255832"><time>1970-01-01T00:00:01.000Z</time></trkpt>
			<trkpt lat="57.922200" lon="33.255059"><time>1970-01-01T00:00:01.000Z</time></trkpt>
			<trkpt lat="57.922779" lon="33.254265"><time>1970-01-01T00:00:01.000Z</time></trkpt>
			<trkpt lat="57.923316" lon="33.253429"><time>1970-01-01T00:00:01.000Z</time></trkpt>
			<trkpt lat="57.923552" lon="33.253214"><time>1970-01-01T00:00:01.000Z</time></trkpt>
			<trkpt lat="57.923208" lon="33.252077"><time>1970-01-01T00:00:01.000Z</time></trkpt>
			<trkpt lat="57.922543" lon="33.251175"><time>1970-01-01T00:00:01.000Z</time></trkpt>
			<trkpt lat="57.922479" lon="33.250274"><time>1970-01-01T00:00:01.000Z</time></trkpt>
			<trkpt lat="57.922178" lon="33.249309"><time>1970-01-01T00:00:01.000Z</time></trkpt>
			<trkpt lat="57.921814" lon="33.247292"><time>1970-01-01T00:00:01.000Z</time></trkpt>
			<trkpt lat="57.921535" lon="33.245983"><time>1970-01-01T00:00:01.000Z</time></trkpt>
			<trkpt lat="57.921299" lon="33.245189"><time>1970-01-01T00:00:01.000Z</time></trkpt>
			<trkpt lat="57.921041" lon="33.243258"><time>1970-01-01T00:00:01.000Z</time></trkpt>
			<trkpt lat="57.921277" lon="33.241863"><time>1970-01-01T00:00:01.000Z</time></trkpt>
			<trkpt lat="57.921127" lon="33.240726"><time>1970-01-01T00:00:01.000Z</time></trkpt>
			<trkpt lat="57.920869" lon="33.239717"><time>1970-01-01T00:00:01.000Z</time></trkpt>
			<trkpt lat="57.920633" lon="33.238258"><time>1970-01-01T00:00:01.000Z</time></trkpt>
			<trkpt lat="57.920633" lon="33.236327"><time>1970-01-01T00:00:01.000Z</time></trkpt>
			<trkpt lat="57.920848" lon="33.236198"><time>1970-01-01T00:00:01.000Z</time></trkpt>
			<trkpt lat="57.920633" lon="33.236284"><time>1970-01-01T00:00:01.000Z</time></trkpt>
			<trkpt lat="57.920505" lon="33.235855"><time>1970-01-01T00:00:01.000Z</time></trkpt>
			<trkpt lat="57.920226" lon="33.232078"><time>1970-01-01T00:00:01.000Z</time></trkpt>
			<trkpt lat="57.919646" lon="33.229096"><time>1970-01-01T00:00:01.000Z</time></trkpt>
			<trkpt lat="57.919217" lon="33.227465"><time>1970-01-01T00:00:01.000Z</time></trkpt>
			<trkpt lat="57.919046" lon="33.226564"><time>1970-01-01T00:00:01.000Z</time></trkpt>
			<trkpt lat="57.918681" lon="33.226070"><time>1970-01-01T00:00:01.000Z</time></trkpt>
			<trkpt lat="57.918509" lon="33.221156"><time>1970-01-01T00:00:01.000Z</time></trkpt>
			<trkpt lat="57.918531" lon="33.218968"><time>1970-01-01T00:00:01.000Z</time></trkpt>
			<trkpt lat="57.918659" lon="33.218410"><time>1970-01-01T00:00:01.000Z</time></trkpt>
			<trkpt lat="57.918616" lon="33.217079"><time>1970-01-01T00:00:01.000Z</time></trkpt>
			<trkpt lat="57.918659" lon="33.214762"><time>1970-01-01T00:00:01.000Z</time></trkpt>
			<trkpt lat="57.918531" lon="33.213174"><time>1970-01-01T00:00:01.000Z</time></trkpt>
			<trkpt lat="57.918681" lon="33.211307"><time>1970-01-01T00:00:01.000Z</time></trkpt>
			<trkpt lat="57.918960" lon="33.209676"><time>1970-01-01T00:00:01.000Z</time></trkpt>
			<trkpt lat="57.918874" lon="33.209183"><time>1970-01-01T00:00:01.000Z</time></trkpt>
			<trkpt lat="57.918852" lon="33.208453"><time>1970-01-01T00:00:01.000Z</time></trkpt>
			<trkpt lat="57.918702" lon="33.207917"><time>1970-01-01T00:00:01.000Z</time></trkpt>
			<trkpt lat="57.918466" lon="33.207616"><time>1970-01-01T00:00:01.000Z</time></trkpt>
			<trkpt lat="57.918230" lon="33.207166"><time>1970-01-01T00:00:01.000Z</time></trkpt>
			<trkpt lat="57.915076" lon="33.196694"><time>1970-01-01T00:00:01.000Z</time></trkpt>
			<trkpt lat="57.914947" lon="33.195943"><time>1970-01-01T00:00:01.000Z</time></trkpt>
			<trkpt lat="57.914904" lon="33.195257"><time>1970-01-01T00:00:01.000Z</time></trkpt>
			<trkpt lat="57.914775" lon="33.194334"><time>1970-01-01T00:00:01.000Z</time></trkpt>
			<trkpt lat="57.914325" lon="33.193283"><time>1970-01-01T00:00:01.000Z</time></trkpt>
			<trkpt lat="57.913767" lon="33.191652"><time>1970-01-01T00:00:01.000Z</time></trkpt>
			<trkpt lat="57.913467" lon="33.190171"><time>1970-01-01T00:00:01.000Z</time></trkpt>
			<trkpt lat="57.913316" lon="33.189721"><time>1970-01-01T00:00:01.000Z</time></trkpt>
			<trkpt lat="57.912844" lon="33.188798"><time>1970-01-01T00:00:01.000Z</time></trkpt>
			<trkpt lat="57.912480" lon="33.188412"><time>1970-01-01T00:00:01.000Z</time></trkpt>
			<trkpt lat="57.912029" lon="33.188154"><time>1970-01-01T00:00:01.000Z</time></trkpt>
			<trkpt lat="57.911535" lon="33.188412"><time>1970-01-01T00:00:01.000Z</time></trkpt>
			<trkpt lat="57.911278" lon="33.188626"><time>1970-01-01T00:00:01.000Z</time></trkpt>
			<trkpt lat="57.911321" lon="33.189077"><time>1970-01-01T00:00:01.000Z</time></trkpt>
			<trkpt lat="57.911063" lon="33.191609"><time>1970-01-01T00:00:01.000Z</time></trkpt>
			<trkpt lat="57.910870" lon="33.192145"><time>1970-01-01T00:00:01.000Z</time></trkpt>
			<trkpt lat="57.910591" lon="33.192660"><time>1970-01-01T00:00:01.000Z</time></trkpt>
			<trkpt lat="57.910377" lon="33.193926"><time>1970-01-01T00:00:01.000Z</time></trkpt>
			<trkpt lat="57.910312" lon="33.194763"><time>1970-01-01T00:00:01.000Z</time></trkpt>
			<trkpt lat="57.910334" lon="33.195514"><time>1970-01-01T00:00:01.000Z</time></trkpt>
			<trkpt lat="57.910312" lon="33.195943"><time>1970-01-01T00:00:01.000Z</time></trkpt>
			<trkpt lat="57.909969" lon="33.197553"><time>1970-01-01T00:00:01.000Z</time></trkpt>
			<trkpt lat="57.909926" lon="33.198604"><time>1970-01-01T00:00:01.000Z</time></trkpt>
			<trkpt lat="57.909948" lon="33.199248"><time>1970-01-01T00:00:01.000Z</time></trkpt>
			<trkpt lat="57.909840" lon="33.199784"><time>1970-01-01T00:00:01.000Z</time></trkpt>
			<trkpt lat="57.909690" lon="33.200171"><time>1970-01-01T00:00:01.000Z</time></trkpt>
			<trkpt lat="57.909497" lon="33.200492"><time>1970-01-01T00:00:01.000Z</time></trkpt>
			<trkpt lat="57.909282" lon="33.200643"><time>1970-01-01T00:00:01.000Z</time></trkpt>
			<trkpt lat="57.909261" lon="33.200986"><time>1970-01-01T00:00:01.000Z</time></trkpt>
			<trkpt lat="57.909347" lon="33.201458"><time>1970-01-01T00:00:01.000Z</time></trkpt>
			<trkpt lat="57.909282" lon="33.201909"><time>1970-01-01T00:00:01.000Z</time></trkpt>
			<trkpt lat="57.909025" lon="33.202552"><time>1970-01-01T00:00:01.000Z</time></trkpt>
			<trkpt lat="57.909111" lon="33.203067"><time>1970-01-01T00:00:01.000Z</time></trkpt>
			<trkpt lat="57.909132" lon="33.204012"><time>1970-01-01T00:00:01.000Z</time></trkpt>
			<trkpt lat="57.908896" lon="33.204612"><time>1970-01-01T00:00:01.000Z</time></trkpt>
			<trkpt lat="57.908660" lon="33.205385"><time>1970-01-01T00:00:01.000Z</time></trkpt>
			<trkpt lat="57.908553" lon="33.206179"><time>1970-01-01T00:00:01.000Z</time></trkpt>
			<trkpt lat="57.908403" lon="33.206372"><time>1970-01-01T00:00:01.000Z</time></trkpt>
			<trkpt lat="57.905291" lon="33.203003"><time>1970-01-01T00:00:01.000Z</time></trkpt>
			<trkpt lat="57.901772" lon="33.199634"><time>1970-01-01T00:00:01.000Z</time></trkpt>
			<trkpt lat="57.901279" lon="33.199377"><time>1970-01-01T00:00:01.000Z</time></trkpt>
			<trkpt lat="57.900077" lon="33.198583"><time>1970-01-01T00:00:01.000Z</time></trkpt>
			<trkpt lat="57.896300" lon="33.196265"><time>1970-01-01T00:00:01.000Z</time></trkpt>
			<trkpt lat="57.896000" lon="33.195943"><time>1970-01-01T00:00:01.000Z</time></trkpt>
			<trkpt lat="57.895614" lon="33.195343"><time>1970-01-01T00:00:01.000Z</time></trkpt>
			<trkpt lat="57.895056" lon="33.193111"><time>1970-01-01T00:00:01.000Z</time></trkpt>
			<trkpt lat="57.892824" lon="33.182318"><time>1970-01-01T00:00:01.000Z</time></trkpt>
			<trkpt lat="57.890764" lon="33.171846"><time>1970-01-01T00:00:01.000Z</time></trkpt>
			<trkpt lat="57.888619" lon="33.165345"><time>1970-01-01T00:00:01.000Z</time></trkpt>
			<trkpt lat="57.887803" lon="33.163070"><time>1970-01-01T00:00:01.000Z</time></trkpt>
			<trkpt lat="57.886537" lon="33.160045"><time>1970-01-01T00:00:01.000Z</time></trkpt>
			<trkpt lat="57.885014" lon="33.157277"><time>1970-01-01T00:00:01.000Z</time></trkpt>
			<trkpt lat="57.884027" lon="33.155710"><time>1970-01-01T00:00:01.000Z</time></trkpt>
			<trkpt lat="57.883447" lon="33.154702"><time>1970-01-01T00:00:01.000Z</time></trkpt>
			<trkpt lat="57.883190" lon="33.154337"><time>1970-01-01T00:00:01.000Z</time></trkpt>
			<trkpt lat="57.882460" lon="33.152685"><time>1970-01-01T00:00:01.000Z</time></trkpt>
			<trkpt lat="57.882181" lon="33.151590"><time>1970-01-01T00:00:01.000Z</time></trkpt>
			<trkpt lat="57.881881" lon="33.150088"><time>1970-01-01T00:00:01.000Z</time></trkpt>
			<trkpt lat="57.881452" lon="33.147642"><time>1970-01-01T00:00:01.000Z</time></trkpt>
			<trkpt lat="57.881430" lon="33.146591"><time>1970-01-01T00:00:01.000Z</time></trkpt>
			<trkpt lat="57.881366" lon="33.146011"><time>1970-01-01T00:00:01.000Z</time></trkpt>
			<trkpt lat="57.878383" lon="33.141505"><time>1970-01-01T00:00:01.000Z</time></trkpt>
			<trkpt lat="57.877611" lon="33.140218"><time>1970-01-01T00:00:01.000Z</time></trkpt>
			<trkpt lat="57.876838" lon="33.139402"><time>1970-01-01T00:00:01.000Z</time></trkpt>
			<trkpt lat="57.876431" lon="33.139445"><time>1970-01-01T00:00:01.000Z</time></trkpt>
			<trkpt lat="57.874585" lon="33.141291"><time>1970-01-01T00:00:01.000Z</time></trkpt>
			<trkpt lat="57.873512" lon="33.142471"><time>1970-01-01T00:00:01.000Z</time></trkpt>
			<trkpt lat="57.870959" lon="33.144252"><time>1970-01-01T00:00:01.000Z</time></trkpt>
			<trkpt lat="57.869350" lon="33.145969"><time>1970-01-01T00:00:01.000Z</time></trkpt>
			<trkpt lat="57.868191" lon="33.146891"><time>1970-01-01T00:00:01.000Z</time></trkpt>
			<trkpt lat="57.866882" lon="33.148200"><time>1970-01-01T00:00:01.000Z</time></trkpt>
			<trkpt lat="57.865938" lon="33.148822"><time>1970-01-01T00:00:01.000Z</time></trkpt>
			<trkpt lat="57.865594" lon="33.148350"><time>1970-01-01T00:00:01.000Z</time></trkpt>
			<trkpt lat="57.865401" lon="33.148372"><time>1970-01-01T00:00:01.000Z</time></trkpt>
			<trkpt lat="57.865165" lon="33.147814"><time>1970-01-01T00:00:01.000Z</time></trkpt>
			<trkpt lat="57.864865" lon="33.147685"><time>1970-01-01T00:00:01.000Z</time></trkpt>
			<trkpt lat="57.864693" lon="33.147664"><time>1970-01-01T00:00:01.000Z</time></trkpt>
			<trkpt lat="57.864758" lon="33.147535"><time>1970-01-01T00:00:01.000Z</time></trkpt>
			<trkpt lat="57.864693" lon="33.147449"><time>1970-01-01T00:00:01.000Z</time></trkpt>
			<trkpt lat="57.864693" lon="33.147106"><time>1970-01-01T00:00:01.000Z</time></trkpt>
			<trkpt lat="57.864629" lon="33.147084"><time>1970-01-01T00:00:01.000Z</time></trkpt>
			<trkpt lat="57.864693" lon="33.146956"><time>1970-01-01T00:00:01.000Z</time></trkpt>
			<trkpt lat="57.864779" lon="33.147063"><time>1970-01-01T00:00:01.000Z</time></trkpt>
			<trkpt lat="57.864843" lon="33.146956"><time>1970-01-01T00:00:01.000Z</time></trkpt>
			<trkpt lat="57.864886" lon="33.146634"><time>1970-01-01T00:00:01.000Z</time></trkpt>
			<trkpt lat="57.865037" lon="33.146462"><time>1970-01-01T00:00:01.000Z</time></trkpt>
			<trkpt lat="57.865187" lon="33.146162"><time>1970-01-01T00:00:01.000Z</time></trkpt>
			<trkpt lat="57.865144" lon="33.146011"><time>1970-01-01T00:00:01.000Z</time></trkpt>
			<trkpt lat="57.865208" lon="33.145260"><time>1970-01-01T00:00:01.000Z</time></trkpt>
			<trkpt lat="57.865187" lon="33.145003"><time>1970-01-01T00:00:01.000Z</time></trkpt>
			<trkpt lat="57.865230" lon="33.144724"><time>1970-01-01T00:00:01.000Z</time></trkpt>
			<trkpt lat="57.865144" lon="33.144338"><time>1970-01-01T00:00:01.000Z</time></trkpt>
			<trkpt lat="57.865380" lon="33.144166"><time>1970-01-01T00:00:01.000Z</time></trkpt>
			<trkpt lat="57.865316" lon="33.143737"><time>1970-01-01T00:00:01.000Z</time></trkpt>
			<trkpt lat="57.865573" lon="33.142643"><time>1970-01-01T00:00:01.000Z</time></trkpt>
			<trkpt lat="57.865509" lon="33.142299"><time>1970-01-01T00:00:01.000Z</time></trkpt>
			<trkpt lat="57.865316" lon="33.142042"><time>1970-01-01T00:00:01.000Z</time></trkpt>
			<trkpt lat="57.865316" lon="33.141892"><time>1970-01-01T00:00:01.000Z</time></trkpt>
			<trkpt lat="57.865037" lon="33.141591"><time>1970-01-01T00:00:01.000Z</time></trkpt>
			<trkpt lat="57.864865" lon="33.141312"><time>1970-01-01T00:00:01.000Z</time></trkpt>
			<trkpt lat="57.864650" lon="33.140754"><time>1970-01-01T00:00:01.000Z</time></trkpt>
			<trkpt lat="57.864071" lon="33.139960"><time>1970-01-01T00:00:01.000Z</time></trkpt>
			<trkpt lat="57.863642" lon="33.138995"><time>1970-01-01T00:00:01.000Z</time></trkpt>
			<trkpt lat="57.863234" lon="33.138330"><time>1970-01-01T00:00:01.000Z</time></trkpt>
			<trkpt lat="57.862912" lon="33.137214"><time>1970-01-01T00:00:01.000Z</time></trkpt>
			<trkpt lat="57.862590" lon="33.136806"><time>1970-01-01T00:00:01.000Z</time></trkpt>
			<trkpt lat="57.862226" lon="33.136055"><time>1970-01-01T00:00:01.000Z</time></trkpt>
			<trkpt lat="57.862054" lon="33.135583"><time>1970-01-01T00:00:01.000Z</time></trkpt>
			<trkpt lat="57.861711" lon="33.135025"><time>1970-01-01T00:00:01.000Z</time></trkpt>
			<trkpt lat="57.861346" lon="33.134703"><time>1970-01-01T00:00:01.000Z</time></trkpt>
			<trkpt lat="57.861217" lon="33.134296"><time>1970-01-01T00:00:01.000Z</time></trkpt>
			<trkpt lat="57.861067" lon="33.134231"><time>1970-01-01T00:00:01.000Z</time></trkpt>
			<trkpt lat="57.860960" lon="33.133909"><time>1970-01-01T00:00:01.000Z</time></trkpt>
			<trkpt lat="57.860938" lon="33.133523"><time>1970-01-01T00:00:01.000Z</time></trkpt>
			<trkpt lat="57.860767" lon="33.133480"><time>1970-01-01T00:00:01.000Z</time></trkpt>
			<trkpt lat="57.860530" lon="33.133566"><time>1970-01-01T00:00:01.000Z</time></trkpt>
			<trkpt lat="57.860230" lon="33.133545"><time>1970-01-01T00:00:01.000Z</time></trkpt>
			<trkpt lat="57.859801" lon="33.133266"><time>1970-01-01T00:00:01.000Z</time></trkpt>
			<trkpt lat="57.859501" lon="33.133266"><time>1970-01-01T00:00:01.000Z</time></trkpt>
			<trkpt lat="57.859136" lon="33.133394"><time>1970-01-01T00:00:01.000Z</time></trkpt>
			<trkpt lat="57.857870" lon="33.132772"><time>1970-01-01T00:00:01.000Z</time></trkpt>
			<trkpt lat="57.857419" lon="33.132858"><time>1970-01-01T00:00:01.000Z</time></trkpt>
			<trkpt lat="57.857011" lon="33.132987"><time>1970-01-01T00:00:01.000Z</time></trkpt>
			<trkpt lat="57.856217" lon="33.132515"><time>1970-01-01T00:00:01.000Z</time></trkpt>
			<trkpt lat="57.855359" lon="33.131249"><time>1970-01-01T00:00:01.000Z</time></trkpt>
			<trkpt lat="57.855209" lon="33.130841"><time>1970-01-01T00:00:01.000Z</time></trkpt>
			<trkpt lat="57.855145" lon="33.128738"><time>1970-01-01T00:00:01.000Z</time></trkpt>
			<trkpt lat="57.854823" lon="33.127558"><time>1970-01-01T00:00:01.000Z</time></trkpt>
			<trkpt lat="57.854673" lon="33.127172"><time>1970-01-01T00:00:01.000Z</time></trkpt>
			<trkpt lat="57.854651" lon="33.126721"><time>1970-01-01T00:00:01.000Z</time></trkpt>
			<trkpt lat="57.853321" lon="33.125155"><time>1970-01-01T00:00:01.000Z</time></trkpt>
			<trkpt lat="57.852183" lon="33.123996"><time>1970-01-01T00:00:01.000Z</time></trkpt>
			<trkpt lat="57.851905" lon="33.123481"><time>1970-01-01T00:00:01.000Z</time></trkpt>
			<trkpt lat="57.851111" lon="33.120992"><time>1970-01-01T00:00:01.000Z</time></trkpt>
			<trkpt lat="57.850338" lon="33.119704"><time>1970-01-01T00:00:01.000Z</time></trkpt>
			<trkpt lat="57.850166" lon="33.118975"><time>1970-01-01T00:00:01.000Z</time></trkpt>
			<trkpt lat="57.849973" lon="33.117730"><time>1970-01-01T00:00:01.000Z</time></trkpt>
			<trkpt lat="57.849845" lon="33.117344"><time>1970-01-01T00:00:01.000Z</time></trkpt>
			<trkpt lat="57.849544" lon="33.116636"><time>1970-01-01T00:00:01.000Z</time></trkpt>
			<trkpt lat="57.848986" lon="33.115885"><time>1970-01-01T00:00:01.000Z</time></trkpt>
			<trkpt lat="57.848407" lon="33.114833"><time>1970-01-01T00:00:01.000Z</time></trkpt>
			<trkpt lat="57.847527" lon="33.112645"><time>1970-01-01T00:00:01.000Z</time></trkpt>
			<trkpt lat="57.846948" lon="33.110907"><time>1970-01-01T00:00:01.000Z</time></trkpt>
			<trkpt lat="57.846411" lon="33.108353"><time>1970-01-01T00:00:01.000Z</time></trkpt>
			<trkpt lat="57.845811" lon="33.106465"><time>1970-01-01T00:00:01.000Z</time></trkpt>
			<trkpt lat="57.845596" lon="33.105628"><time>1970-01-01T00:00:01.000Z</time></trkpt>
			<trkpt lat="57.844995" lon="33.104190"><time>1970-01-01T00:00:01.000Z</time></trkpt>
			<trkpt lat="57.844523" lon="33.103182"><time>1970-01-01T00:00:01.000Z</time></trkpt>
			<trkpt lat="57.844008" lon="33.101551"><time>1970-01-01T00:00:01.000Z</time></trkpt>
			<trkpt lat="57.843686" lon="33.100822"><time>1970-01-01T00:00:01.000Z</time></trkpt>
			<trkpt lat="57.842871" lon="33.099899"><time>1970-01-01T00:00:01.000Z</time></trkpt>
			<trkpt lat="57.841776" lon="33.099019"><time>1970-01-01T00:00:01.000Z</time></trkpt>
			<trkpt lat="57.841240" lon="33.098526"><time>1970-01-01T00:00:01.000Z</time></trkpt>
			<trkpt lat="57.840897" lon="33.098440"><time>1970-01-01T00:00:01.000Z</time></trkpt>
			<trkpt lat="57.840317" lon="33.098805"><time>1970-01-01T00:00:01.000Z</time></trkpt>
			<trkpt lat="57.839802" lon="33.098611"><time>1970-01-01T00:00:01.000Z</time></trkpt>
			<trkpt lat="57.838236" lon="33.096916"><time>1970-01-01T00:00:01.000Z</time></trkpt>
			<trkpt lat="57.837614" lon="33.095908"><time>1970-01-01T00:00:01.000Z</time></trkpt>
			<trkpt lat="57.837335" lon="33.095285"><time>1970-01-01T00:00:01.000Z</time></trkpt>
			<trkpt lat="57.836884" lon="33.094685"><time>1970-01-01T00:00:01.000Z</time></trkpt>
			<trkpt lat="57.836305" lon="33.094062"><time>1970-01-01T00:00:01.000Z</time></trkpt>
			<trkpt lat="57.835833" lon="33.093805"><time>1970-01-01T00:00:01.000Z</time></trkpt>
			<trkpt lat="57.835725" lon="33.093311"><time>1970-01-01T00:00:01.000Z</time></trkpt>
			<trkpt lat="57.835983" lon="33.092432"><time>1970-01-01T00:00:01.000Z</time></trkpt>
			<trkpt lat="57.835983" lon="33.091123"><time>1970-01-01T00:00:01.000Z</time></trkpt>
			<trkpt lat="57.835597" lon="33.090200"><time>1970-01-01T00:00:01.000Z</time></trkpt>
			<trkpt lat="57.834846" lon="33.088677"><time>1970-01-01T00:00:01.000Z</time></trkpt>
			<trkpt lat="57.834223" lon="33.087754"><time>1970-01-01T00:00:01.000Z</time></trkpt>
			<trkpt lat="57.833365" lon="33.086874"><time>1970-01-01T00:00:01.000Z</time></trkpt>
			<trkpt lat="57.833301" lon="33.086338"><time>1970-01-01T00:00:01.000Z</time></trkpt>
			<trkpt lat="57.833451" lon="33.084771"><time>1970-01-01T00:00:01.000Z</time></trkpt>
			<trkpt lat="57.833108" lon="33.083012"><time>1970-01-01T00:00:01.000Z</time></trkpt>
			<trkpt lat="57.832614" lon="33.081574"><time>1970-01-01T00:00:01.000Z</time></trkpt>
			<trkpt lat="57.832163" lon="33.080909"><time>1970-01-01T00:00:01.000Z</time></trkpt>
			<trkpt lat="57.831906" lon="33.080115"><time>1970-01-01T00:00:01.000Z</time></trkpt>
			<trkpt lat="57.831584" lon="33.079514"><time>1970-01-01T00:00:01.000Z</time></trkpt>
			<trkpt lat="57.831048" lon="33.079063"><time>1970-01-01T00:00:01.000Z</time></trkpt>
			<trkpt lat="57.831284" lon="33.076703"><time>1970-01-01T00:00:01.000Z</time></trkpt>
			<trkpt lat="57.831498" lon="33.075158"><time>1970-01-01T00:00:01.000Z</time></trkpt>
			<trkpt lat="57.831026" lon="33.073849"><time>1970-01-01T00:00:01.000Z</time></trkpt>
			<trkpt lat="57.830533" lon="33.071489"><time>1970-01-01T00:00:01.000Z</time></trkpt>
			<trkpt lat="57.826499" lon="33.064107"><time>1970-01-01T00:00:01.000Z</time></trkpt>
			<trkpt lat="57.825018" lon="33.061232"><time>1970-01-01T00:00:01.000Z</time></trkpt>
			<trkpt lat="57.824052" lon="33.058507"><time>1970-01-01T00:00:01.000Z</time></trkpt>
			<trkpt lat="57.823602" lon="33.056747"><time>1970-01-01T00:00:01.000Z</time></trkpt>
			<trkpt lat="57.822314" lon="33.048465"><time>1970-01-01T00:00:01.000Z</time></trkpt>
			<trkpt lat="57.821520" lon="33.043208"><time>1970-01-01T00:00:01.000Z</time></trkpt>
			<trkpt lat="57.820791" lon="33.037715"><time>1970-01-01T00:00:01.000Z</time></trkpt>
			<trkpt lat="57.820276" lon="33.034131"><time>1970-01-01T00:00:01.000Z</time></trkpt>
			<trkpt lat="57.819761" lon="33.032865"><time>1970-01-01T00:00:01.000Z</time></trkpt>
			<trkpt lat="57.816435" lon="33.027629"><time>1970-01-01T00:00:01.000Z</time></trkpt>
			<trkpt lat="57.809719" lon="33.017609"><time>1970-01-01T00:00:01.000Z</time></trkpt>
			<trkpt lat="57.807423" lon="33.014347"><time>1970-01-01T00:00:01.000Z</time></trkpt>
			<trkpt lat="57.807895" lon="33.011686"><time>1970-01-01T00:00:01.000Z</time></trkpt>
			<trkpt lat="57.807723" lon="33.009820"><time>1970-01-01T00:00:01.000Z</time></trkpt>
			<trkpt lat="57.807852" lon="33.008210"><time>1970-01-01T00:00:01.000Z</time></trkpt>
			<trkpt lat="57.807788" lon="33.005914"><time>1970-01-01T00:00:01.000Z</time></trkpt>
			<trkpt lat="57.807916" lon="33.003146"><time>1970-01-01T00:00:01.000Z</time></trkpt>
			<trkpt lat="57.808667" lon="33.000185"><time>1970-01-01T00:00:01.000Z</time></trkpt>
			<trkpt lat="57.809225" lon="32.998404"><time>1970-01-01T00:00:01.000Z</time></trkpt>
			<trkpt lat="57.809676" lon="32.996473"><time>1970-01-01T00:00:01.000Z</time></trkpt>
			<trkpt lat="57.809912" lon="32.992932"><time>1970-01-01T00:00:01.000Z</time></trkpt>
			<trkpt lat="57.809526" lon="32.987482"><time>1970-01-01T00:00:01.000Z</time></trkpt>
			<trkpt lat="57.809569" lon="32.985036"><time>1970-01-01T00:00:01.000Z</time></trkpt>
			<trkpt lat="57.810148" lon="32.982869"><time>1970-01-01T00:00:01.000Z</time></trkpt>
			<trkpt lat="57.810320" lon="32.980036"><time>1970-01-01T00:00:01.000Z</time></trkpt>
			<trkpt lat="57.810813" lon="32.976625"><time>1970-01-01T00:00:01.000Z</time></trkpt>
			<trkpt lat="57.811693" lon="32.974007"><time>1970-01-01T00:00:01.000Z</time></trkpt>
			<trkpt lat="57.812101" lon="32.972977"><time>1970-01-01T00:00:01.000Z</time></trkpt>
			<trkpt lat="57.812487" lon="32.972269"><time>1970-01-01T00:00:01.000Z</time></trkpt>
			<trkpt lat="57.812551" lon="32.971110"><time>1970-01-01T00:00:01.000Z</time></trkpt>
			<trkpt lat="57.812143" lon="32.969951"><time>1970-01-01T00:00:01.000Z</time></trkpt>
			<trkpt lat="57.811457" lon="32.968235"><time>1970-01-01T00:00:01.000Z</time></trkpt>
			<trkpt lat="57.811414" lon="32.967076"><time>1970-01-01T00:00:01.000Z</time></trkpt>
			<trkpt lat="57.811671" lon="32.964308"><time>1970-01-01T00:00:01.000Z</time></trkpt>
			<trkpt lat="57.812079" lon="32.962119"><time>1970-01-01T00:00:01.000Z</time></trkpt>
			<trkpt lat="57.811564" lon="32.961669"><time>1970-01-01T00:00:01.000Z</time></trkpt>
			<trkpt lat="57.809740" lon="32.959566"><time>1970-01-01T00:00:01.000Z</time></trkpt>
			<trkpt lat="57.808882" lon="32.957506"><time>1970-01-01T00:00:01.000Z</time></trkpt>
			<trkpt lat="57.803539" lon="32.963278"><time>1970-01-01T00:00:01.000Z</time></trkpt>
			<trkpt lat="57.800470" lon="32.967012"><time>1970-01-01T00:00:01.000Z</time></trkpt>
			<trkpt lat="57.797724" lon="32.968986"><time>1970-01-01T00:00:01.000Z</time></trkpt>
			<trkpt lat="57.795771" lon="32.970659"><time>1970-01-01T00:00:01.000Z</time></trkpt>
			<trkpt lat="57.794634" lon="32.971689"><time>1970-01-01T00:00:01.000Z</time></trkpt>
			<trkpt lat="57.792252" lon="32.973170"><time>1970-01-01T00:00:01.000Z</time></trkpt>
			<trkpt lat="57.791329" lon="32.975037"><time>1970-01-01T00:00:01.000Z</time></trkpt>
			<trkpt lat="57.790278" lon="32.976238"><time>1970-01-01T00:00:01.000Z</time></trkpt>
			<trkpt lat="57.788690" lon="32.977783"><time>1970-01-01T00:00:01.000Z</time></trkpt>
			<trkpt lat="57.786780" lon="32.978942"><time>1970-01-01T00:00:01.000Z</time></trkpt>
			<trkpt lat="57.785236" lon="32.980229"><time>1970-01-01T00:00:01.000Z</time></trkpt>
			<trkpt lat="57.784163" lon="32.980680"><time>1970-01-01T00:00:01.000Z</time></trkpt>
			<trkpt lat="57.783261" lon="32.981002"><time>1970-01-01T00:00:01.000Z</time></trkpt>
			<trkpt lat="57.782682" lon="32.980873"><time>1970-01-01T00:00:01.000Z</time></trkpt>
			<trkpt lat="57.779657" lon="32.989735"><time>1970-01-01T00:00:01.000Z</time></trkpt>
			<trkpt lat="57.778262" lon="32.990186"><time>1970-01-01T00:00:01.000Z</time></trkpt>
			<trkpt lat="57.777017" lon="32.992031"><time>1970-01-01T00:00:01.000Z</time></trkpt>
			<trkpt lat="57.775580" lon="32.994799"><time>1970-01-01T00:00:01.000Z</time></trkpt>
			<trkpt lat="57.774850" lon="32.995894"><time>1970-01-01T00:00:01.000Z</time></trkpt>
			<trkpt lat="57.774035" lon="32.998533"><time>1970-01-01T00:00:01.000Z</time></trkpt>
			<trkpt lat="57.773927" lon="33.000443"><time>1970-01-01T00:00:01.000Z</time></trkpt>
			<trkpt lat="57.773992" lon="33.002245"><time>1970-01-01T00:00:01.000Z</time></trkpt>
			<trkpt lat="57.773970" lon="33.002760"><time>1970-01-01T00:00:01.000Z</time></trkpt>
			<trkpt lat="57.773219" lon="33.005206"><time>1970-01-01T00:00:01.000Z</time></trkpt>
			<trkpt lat="57.772618" lon="33.006301"><time>1970-01-01T00:00:01.000Z</time></trkpt>
			<trkpt lat="57.772039" lon="33.007502"><time>1970-01-01T00:00:01.000Z</time></trkpt>
			<trkpt lat="57.771031" lon="33.004691"><time>1970-01-01T00:00:01.000Z</time></trkpt>
			<trkpt lat="57.770086" lon="33.001666"><time>1970-01-01T00:00:01.000Z</time></trkpt>
			<trkpt lat="57.770043" lon="33.000443"><time>1970-01-01T00:00:01.000Z</time></trkpt>
			<trkpt lat="57.770258" lon="32.999413"><time>1970-01-01T00:00:01.000Z</time></trkpt>
			<trkpt lat="57.770322" lon="32.997052"><time>1970-01-01T00:00:01.000Z</time></trkpt>
			<trkpt lat="57.770387" lon="32.996473"><time>1970-01-01T00:00:01.000Z</time></trkpt>
			<trkpt lat="57.770794" lon="32.994928"><time>1970-01-01T00:00:01.000Z</time></trkpt>
			<trkpt lat="57.771009" lon="32.994284"><time>1970-01-01T00:00:01.000Z</time></trkpt>
			<trkpt lat="57.771116" lon="32.992997"><time>1970-01-01T00:00:01.000Z</time></trkpt>
			<trkpt lat="57.771116" lon="32.992224"><time>1970-01-01T00:00:01.000Z</time></trkpt>
			<trkpt lat="57.771460" lon="32.991581"><time>1970-01-01T00:00:01.000Z</time></trkpt>
			<trkpt lat="57.772039" lon="32.990315"><time>1970-01-01T00:00:01.000Z</time></trkpt>
			<trkpt lat="57.772318" lon="32.989542"><time>1970-01-01T00:00:01.000Z</time></trkpt>
			<trkpt lat="57.772661" lon="32.988383"><time>1970-01-01T00:00:01.000Z</time></trkpt>
			<trkpt lat="57.772339" lon="32.987611"><time>1970-01-01T00:00:01.000Z</time></trkpt>
			<trkpt lat="57.772211" lon="32.986967"><time>1970-01-01T00:00:01.000Z</time></trkpt>
			<trkpt lat="57.772211" lon="32.986645"><time>1970-01-01T00:00:01.000Z</time></trkpt>
			<trkpt lat="57.771352" lon="32.986002"><time>1970-01-01T00:00:01.000Z</time></trkpt>
			<trkpt lat="57.770945" lon="32.985100"><time>1970-01-01T00:00:01.000Z</time></trkpt>
			<trkpt lat="57.770108" lon="32.984135"><time>1970-01-01T00:00:01.000Z</time></trkpt>
			<trkpt lat="57.769292" lon="32.981646"><time>1970-01-01T00:00:01.000Z</time></trkpt>
			<trkpt lat="57.769250" lon="32.980680"><time>1970-01-01T00:00:01.000Z</time></trkpt>
			<trkpt lat="57.768906" lon="32.979843"><time>1970-01-01T00:00:01.000Z</time></trkpt>
			<trkpt lat="57.767297" lon="32.977268"><time>1970-01-01T00:00:01.000Z</time></trkpt>
			<trkpt lat="57.766889" lon="32.976195"><time>1970-01-01T00:00:01.000Z</time></trkpt>
			<trkpt lat="57.766203" lon="32.975101"><time>1970-01-01T00:00:01.000Z</time></trkpt>
			<trkpt lat="57.765795" lon="32.974135"><time>1970-01-01T00:00:01.000Z</time></trkpt>
			<trkpt lat="57.765065" lon="32.972719"><time>1970-01-01T00:00:01.000Z</time></trkpt>
			<trkpt lat="57.764679" lon="32.971818"><time>1970-01-01T00:00:01.000Z</time></trkpt>
			<trkpt lat="57.763005" lon="32.969243"><time>1970-01-01T00:00:01.000Z</time></trkpt>
			<trkpt lat="57.762490" lon="32.968621"><time>1970-01-01T00:00:01.000Z</time></trkpt>
			<trkpt lat="57.761932" lon="32.967720"><time>1970-01-01T00:00:01.000Z</time></trkpt>
			<trkpt lat="57.761417" lon="32.966754"><time>1970-01-01T00:00:01.000Z</time></trkpt>
			<trkpt lat="57.761203" lon="32.966432"><time>1970-01-01T00:00:01.000Z</time></trkpt>
			<trkpt lat="57.761010" lon="32.965853"><time>1970-01-01T00:00:01.000Z</time></trkpt>
			<trkpt lat="57.760795" lon="32.964308"><time>1970-01-01T00:00:01.000Z</time></trkpt>
			<trkpt lat="57.760945" lon="32.962248"><time>1970-01-01T00:00:01.000Z</time></trkpt>
			<trkpt lat="57.761353" lon="32.960403"><time>1970-01-01T00:00:01.000Z</time></trkpt>
			<trkpt lat="57.762233" lon="32.960016"><time>1970-01-01T00:00:01.000Z</time></trkpt>
			<trkpt lat="57.764207" lon="32.960596"><time>1970-01-01T00:00:01.000Z</time></trkpt>
			<trkpt lat="57.764979" lon="32.960274"><time>1970-01-01T00:00:01.000Z</time></trkpt>
			<trkpt lat="57.765881" lon="32.960338"><time>1970-01-01T00:00:01.000Z</time></trkpt>
			<trkpt lat="57.766224" lon="32.960081"><time>1970-01-01T00:00:01.000Z</time></trkpt>
			<trkpt lat="57.764550" lon="32.960403"><time>1970-01-01T00:00:01.000Z</time></trkpt>
			<trkpt lat="57.763864" lon="32.960274"><time>1970-01-01T00:00:01.000Z</time></trkpt>
			<trkpt lat="57.762662" lon="32.959952"><time>1970-01-01T00:00:01.000Z</time></trkpt>
			<trkpt lat="57.762169" lon="32.959952"><time>1970-01-01T00:00:01.000Z</time></trkpt>
			<trkpt lat="57.761589" lon="32.960145"><time>1970-01-01T00:00:01.000Z</time></trkpt>
			<trkpt lat="57.761010" lon="32.960209"><time>1970-01-01T00:00:01.000Z</time></trkpt>
			<trkpt lat="57.760388" lon="32.960467"><time>1970-01-01T00:00:01.000Z</time></trkpt>
			<trkpt lat="57.758371" lon="32.959501"><time>1970-01-01T00:00:01.000Z</time></trkpt>
			<trkpt lat="57.756311" lon="32.958149"><time>1970-01-01T00:00:01.000Z</time></trkpt>
			<trkpt lat="57.755366" lon="32.957635"><time>1970-01-01T00:00:01.000Z</time></trkpt>
			<trkpt lat="57.754851" lon="32.957828"><time>1970-01-01T00:00:01.000Z</time></trkpt>
			<trkpt lat="57.754444" lon="32.957570"><time>1970-01-01T00:00:01.000Z</time></trkpt>
			<trkpt lat="57.754058" lon="32.956991"><time>1970-01-01T00:00:01.000Z</time></trkpt>
			<trkpt lat="57.753800" lon="32.956090"><time>1970-01-01T00:00:01.000Z</time></trkpt>
			<trkpt lat="57.753543" lon="32.954738"><time>1970-01-01T00:00:01.000Z</time></trkpt>
			<trkpt lat="57.753135" lon="32.953965"><time>1970-01-01T00:00:01.000Z</time></trkpt>
			<trkpt lat="57.752856" lon="32.952828"><time>1970-01-01T00:00:01.000Z</time></trkpt>
			<trkpt lat="57.752491" lon="32.951927"><time>1970-01-01T00:00:01.000Z</time></trkpt>
			<trkpt lat="57.752277" lon="32.951219"><time>1970-01-01T00:00:01.000Z</time></trkpt>
			<trkpt lat="57.751869" lon="32.948515"><time>1970-01-01T00:00:01.000Z</time></trkpt>
			<trkpt lat="57.751354" lon="32.947614"><time>1970-01-01T00:00:01.000Z</time></trkpt>
			<trkpt lat="57.751011" lon="32.947099"><time>1970-01-01T00:00:01.000Z</time></trkpt>
			<trkpt lat="57.750624" lon="32.946841"><time>1970-01-01T00:00:01.000Z</time></trkpt>
			<trkpt lat="57.749830" lon="32.947421"><time>1970-01-01T00:00:01.000Z</time></trkpt>
			<trkpt lat="57.748843" lon="32.947549"><time>1970-01-01T00:00:01.000Z</time></trkpt>
			<trkpt lat="57.746934" lon="32.947678"><time>1970-01-01T00:00:01.000Z</time></trkpt>
			<trkpt lat="57.745496" lon="32.948000"><time>1970-01-01T00:00:01.000Z</time></trkpt>
			<trkpt lat="57.744766" lon="32.947936"><time>1970-01-01T00:00:01.000Z</time></trkpt>
			<trkpt lat="57.744187" lon="32.947549"><time>1970-01-01T00:00:01.000Z</time></trkpt>
			<trkpt lat="57.743393" lon="32.947485"><time>1970-01-01T00:00:01.000Z</time></trkpt>
			<trkpt lat="57.742857" lon="32.947228"><time>1970-01-01T00:00:01.000Z</time></trkpt>
			<trkpt lat="57.742342" lon="32.947099"><time>1970-01-01T00:00:01.000Z</time></trkpt>
			<trkpt lat="57.741505" lon="32.947163"><time>1970-01-01T00:00:01.000Z</time></trkpt>
			<trkpt lat="57.740646" lon="32.947163"><time>1970-01-01T00:00:01.000Z</time></trkpt>
			<trkpt lat="57.740217" lon="32.947228"><time>1970-01-01T00:00:01.000Z</time></trkpt>
			<trkpt lat="57.739895" lon="32.947356"><time>1970-01-01T00:00:01.000Z</time></trkpt>
			<trkpt lat="57.739445" lon="32.947356"><time>1970-01-01T00:00:01.000Z</time></trkpt>
			<trkpt lat="57.739037" lon="32.947228"><time>1970-01-01T00:00:01.000Z</time></trkpt>
			<trkpt lat="57.738672" lon="32.947485"><time>1970-01-01T00:00:01.000Z</time></trkpt>
			<trkpt lat="57.738286" lon="32.948129"><time>1970-01-01T00:00:01.000Z</time></trkpt>
			<trkpt lat="57.737814" lon="32.948644"><time>1970-01-01T00:00:01.000Z</time></trkpt>
			<trkpt lat="57.737213" lon="32.948966"><time>1970-01-01T00:00:01.000Z</time></trkpt>
			<trkpt lat="57.736763" lon="32.949094"><time>1970-01-01T00:00:01.000Z</time></trkpt>
			<trkpt lat="57.735840" lon="32.949030"><time>1970-01-01T00:00:01.000Z</time></trkpt>
			<trkpt lat="57.735153" lon="32.949030"><time>1970-01-01T00:00:01.000Z</time></trkpt>
			<trkpt lat="57.734488" lon="32.948772"><time>1970-01-01T00:00:01.000Z</time></trkpt>
			<trkpt lat="57.734188" lon="32.948515"><time>1970-01-01T00:00:01.000Z</time></trkpt>
			<trkpt lat="57.733973" lon="32.947871"><time>1970-01-01T00:00:01.000Z</time></trkpt>
			<trkpt lat="57.733694" lon="32.947228"><time>1970-01-01T00:00:01.000Z</time></trkpt>
			<trkpt lat="57.733265" lon="32.946841"><time>1970-01-01T00:00:01.000Z</time></trkpt>
			<trkpt lat="57.732664" lon="32.946713"><time>1970-01-01T00:00:01.000Z</time></trkpt>
			<trkpt lat="57.732063" lon="32.946713"><time>1970-01-01T00:00:01.000Z</time></trkpt>
			<trkpt lat="57.731505" lon="32.946906"><time>1970-01-01T00:00:01.000Z</time></trkpt>
			<trkpt lat="57.731334" lon="32.947099"><time>1970-01-01T00:00:01.000Z</time></trkpt>
			<trkpt lat="57.730476" lon="32.948193"><time>1970-01-01T00:00:01.000Z</time></trkpt>
			<trkpt lat="57.729016" lon="32.950317"><time>1970-01-01T00:00:01.000Z</time></trkpt>
			<trkpt lat="57.728480" lon="32.950446"><time>1970-01-01T00:00:01.000Z</time></trkpt>
			<trkpt lat="57.727858" lon="32.949481"><time>1970-01-01T00:00:01.000Z</time></trkpt>
			<trkpt lat="57.727471" lon="32.948515"><time>1970-01-01T00:00:01.000Z</time></trkpt>
			<trkpt lat="57.726441" lon="32.947099"><time>1970-01-01T00:00:01.000Z</time></trkpt>
			<trkpt lat="57.725111" lon="32.945640"><time>1970-01-01T00:00:01.000Z</time></trkpt>
			<trkpt lat="57.724639" lon="32.945382"><time>1970-01-01T00:00:01.000Z</time></trkpt>
			<trkpt lat="57.724188" lon="32.945447"><time>1970-01-01T00:00:01.000Z</time></trkpt>
			<trkpt lat="57.723609" lon="32.944545"><time>1970-01-01T00:00:01.000Z</time></trkpt>
			<trkpt lat="57.722407" lon="32.943193"><time>1970-01-01T00:00:01.000Z</time></trkpt>
			<trkpt lat="57.721785" lon="32.942743"><time>1970-01-01T00:00:01.000Z</time></trkpt>
			<trkpt lat="57.719596" lon="32.940232"><time>1970-01-01T00:00:01.000Z</time></trkpt>
			<trkpt lat="57.719189" lon="32.937743"><time>1970-01-01T00:00:01.000Z</time></trkpt>
			<trkpt lat="57.718888" lon="32.936327"><time>1970-01-01T00:00:01.000Z</time></trkpt>
			<trkpt lat="57.718116" lon="32.933816"><time>1970-01-01T00:00:01.000Z</time></trkpt>
			<trkpt lat="57.717944" lon="32.932915"><time>1970-01-01T00:00:01.000Z</time></trkpt>
			<trkpt lat="57.716120" lon="32.930362"><time>1970-01-01T00:00:01.000Z</time></trkpt>
			<trkpt lat="57.715262" lon="32.929267"><time>1970-01-01T00:00:01.000Z</time></trkpt>
			<trkpt lat="57.714811" lon="32.928559"><time>1970-01-01T00:00:01.000Z</time></trkpt>
			<trkpt lat="57.714232" lon="32.928044"><time>1970-01-01T00:00:01.000Z</time></trkpt>
			<trkpt lat="57.713953" lon="32.926886"><time>1970-01-01T00:00:01.000Z</time></trkpt>
			<trkpt lat="57.713717" lon="32.925019"><time>1970-01-01T00:00:01.000Z</time></trkpt>
			<trkpt lat="57.713095" lon="32.923045"><time>1970-01-01T00:00:01.000Z</time></trkpt>
			<trkpt lat="57.712816" lon="32.922594"><time>1970-01-01T00:00:01.000Z</time></trkpt>
			<trkpt lat="57.712387" lon="32.922144"><time>1970-01-01T00:00:01.000Z</time></trkpt>
			<trkpt lat="57.712108" lon="32.921307"><time>1970-01-01T00:00:01.000Z</time></trkpt>
			<trkpt lat="57.711722" lon="32.920534"><time>1970-01-01T00:00:01.000Z</time></trkpt>
			<trkpt lat="57.711485" lon="32.919182"><time>1970-01-01T00:00:01.000Z</time></trkpt>
			<trkpt lat="57.711314" lon="32.917702"><time>1970-01-01T00:00:01.000Z</time></trkpt>
			<trkpt lat="57.710992" lon="32.916607"><time>1970-01-01T00:00:01.000Z</time></trkpt>
			<trkpt lat="57.710370" lon="32.916286"><time>1970-01-01T00:00:01.000Z</time></trkpt>
			<trkpt lat="57.709318" lon="32.915341"><time>1970-01-01T00:00:01.000Z</time></trkpt>
			<trkpt lat="57.708546" lon="32.915213"><time>1970-01-01T00:00:01.000Z</time></trkpt>
			<trkpt lat="57.708009" lon="32.914891"><time>1970-01-01T00:00:01.000Z</time></trkpt>
			<trkpt lat="57.707602" lon="32.914826"><time>1970-01-01T00:00:01.000Z</time></trkpt>
			<trkpt lat="57.707044" lon="32.914376"><time>1970-01-01T00:00:01.000Z</time></trkpt>
			<trkpt lat="57.705456" lon="32.913732"><time>1970-01-01T00:00:01.000Z</time></trkpt>
			<trkpt lat="57.704662" lon="32.913732"><time>1970-01-01T00:00:01.000Z</time></trkpt>
			<trkpt lat="57.704147" lon="32.913217"><time>1970-01-01T00:00:01.000Z</time></trkpt>
			<trkpt lat="57.703224" lon="32.913861"><time>1970-01-01T00:00:01.000Z</time></trkpt>
			<trkpt lat="57.702817" lon="32.912123"><time>1970-01-01T00:00:01.000Z</time></trkpt>
			<trkpt lat="57.702044" lon="32.911286"><time>1970-01-01T00:00:01.000Z</time></trkpt>
			<trkpt lat="57.701636" lon="32.910642"><time>1970-01-01T00:00:01.000Z</time></trkpt>
			<trkpt lat="57.700993" lon="32.909998"><time>1970-01-01T00:00:01.000Z</time></trkpt>
			<trkpt lat="57.700199" lon="32.908969"><time>1970-01-01T00:00:01.000Z</time></trkpt>
			<trkpt lat="57.699469" lon="32.908647"><time>1970-01-01T00:00:01.000Z</time></trkpt>
			<trkpt lat="57.698954" lon="32.908346"><time>1970-01-01T00:00:01.000Z</time></trkpt>
			<trkpt lat="57.698332" lon="32.908153"><time>1970-01-01T00:00:01.000Z</time></trkpt>
			<trkpt lat="57.697967" lon="32.908153"><time>1970-01-01T00:00:01.000Z</time></trkpt>
			<trkpt lat="57.697517" lon="32.908647"><time>1970-01-01T00:00:01.000Z</time></trkpt>
			<trkpt lat="57.697002" lon="32.909805"><time>1970-01-01T00:00:01.000Z</time></trkpt>
			<trkpt lat="57.695736" lon="32.911737"><time>1970-01-01T00:00:01.000Z</time></trkpt>
			<trkpt lat="57.694856" lon="32.912960"><time>1970-01-01T00:00:01.000Z</time></trkpt>
			<trkpt lat="57.694512" lon="32.913603"><time>1970-01-01T00:00:01.000Z</time></trkpt>
			<trkpt lat="57.694298" lon="32.914247"><time>1970-01-01T00:00:01.000Z</time></trkpt>
			<trkpt lat="57.693997" lon="32.915470"><time>1970-01-01T00:00:01.000Z</time></trkpt>
			<trkpt lat="57.693075" lon="32.917380"><time>1970-01-01T00:00:01.000Z</time></trkpt>
			<trkpt lat="57.692925" lon="32.917766"><time>1970-01-01T00:00:01.000Z</time></trkpt>
			<trkpt lat="57.692925" lon="32.918088"><time>1970-01-01T00:00:01.000Z</time></trkpt>
			<trkpt lat="57.692796" lon="32.918539"><time>1970-01-01T00:00:01.000Z</time></trkpt>
			<trkpt lat="57.692581" lon="32.918860"><time>1970-01-01T00:00:01.000Z</time></trkpt>
			<trkpt lat="57.692302" lon="32.919054"><time>1970-01-01T00:00:01.000Z</time></trkpt>
			<trkpt lat="57.691487" lon="32.920148"><time>1970-01-01T00:00:01.000Z</time></trkpt>
			<trkpt lat="57.691315" lon="32.920985"><time>1970-01-01T00:00:01.000Z</time></trkpt>
			<trkpt lat="57.691101" lon="32.921757"><time>1970-01-01T00:00:01.000Z</time></trkpt>
			<trkpt lat="57.690822" lon="32.922272"><time>1970-01-01T00:00:01.000Z</time></trkpt>
			<trkpt lat="57.690586" lon="32.923045"><time>1970-01-01T00:00:01.000Z</time></trkpt>
			<trkpt lat="57.690393" lon="32.923538"><time>1970-01-01T00:00:01.000Z</time></trkpt>
			<trkpt lat="57.690178" lon="32.923731"><time>1970-01-01T00:00:01.000Z</time></trkpt>
			<trkpt lat="57.689942" lon="32.924246"><time>1970-01-01T00:00:01.000Z</time></trkpt>
			<trkpt lat="57.690071" lon="32.925598"><time>1970-01-01T00:00:01.000Z</time></trkpt>
			<trkpt lat="57.690071" lon="32.926178"><time>1970-01-01T00:00:01.000Z</time></trkpt>
			<trkpt lat="57.690414" lon="32.928495"><time>1970-01-01T00:00:01.000Z</time></trkpt>
			<trkpt lat="57.690414" lon="32.929203"><time>1970-01-01T00:00:01.000Z</time></trkpt>
			<trkpt lat="57.690285" lon="32.929589"><time>1970-01-01T00:00:01.000Z</time></trkpt>
			<trkpt lat="57.689942" lon="32.930169"><time>1970-01-01T00:00:01.000Z</time></trkpt>
			<trkpt lat="57.689277" lon="32.931435"><time>1970-01-01T00:00:01.000Z</time></trkpt>
			<trkpt lat="57.688569" lon="32.932593"><time>1970-01-01T00:00:01.000Z</time></trkpt>
			<trkpt lat="57.688397" lon="32.933366"><time>1970-01-01T00:00:01.000Z</time></trkpt>
			<trkpt lat="57.688182" lon="32.935168"><time>1970-01-01T00:00:01.000Z</time></trkpt>
			<trkpt lat="57.688247" lon="32.935876"><time>1970-01-01T00:00:01.000Z</time></trkpt>
			<trkpt lat="57.688247" lon="32.936520"><time>1970-01-01T00:00:01.000Z</time></trkpt>
			<trkpt lat="57.687946" lon="32.937936"><time>1970-01-01T00:00:01.000Z</time></trkpt>
			<trkpt lat="57.687775" lon="32.940361"><time>1970-01-01T00:00:01.000Z</time></trkpt>
			<trkpt lat="57.687603" lon="32.941198"><time>1970-01-01T00:00:01.000Z</time></trkpt>
			<trkpt lat="57.687045" lon="32.942550"><time>1970-01-01T00:00:01.000Z</time></trkpt>
			<trkpt lat="57.686766" lon="32.943065"><time>1970-01-01T00:00:01.000Z</time></trkpt>
			<trkpt lat="57.686509" lon="32.943387"><time>1970-01-01T00:00:01.000Z</time></trkpt>
			<trkpt lat="57.686230" lon="32.943580"><time>1970-01-01T00:00:01.000Z</time></trkpt>
			<trkpt lat="57.685779" lon="32.944674"><time>1970-01-01T00:00:01.000Z</time></trkpt>
			<trkpt lat="57.685608" lon="32.946841"><time>1970-01-01T00:00:01.000Z</time></trkpt>
			<trkpt lat="57.685629" lon="32.948258"><time>1970-01-01T00:00:01.000Z</time></trkpt>
			<trkpt lat="57.685736" lon="32.949352"><time>1970-01-01T00:00:01.000Z</time></trkpt>
			<trkpt lat="57.685844" lon="32.951090"><time>1970-01-01T00:00:01.000Z</time></trkpt>
			<trkpt lat="57.685586" lon="32.952699"><time>1970-01-01T00:00:01.000Z</time></trkpt>
			<trkpt lat="57.685586" lon="32.954609"><time>1970-01-01T00:00:01.000Z</time></trkpt>
			<trkpt lat="57.685350" lon="32.955381"><time>1970-01-01T00:00:01.000Z</time></trkpt>
			<trkpt lat="57.685221" lon="32.956218"><time>1970-01-01T00:00:01.000Z</time></trkpt>
			<trkpt lat="57.684942" lon="32.957184"><time>1970-01-01T00:00:01.000Z</time></trkpt>
			<trkpt lat="57.684878" lon="32.959373"><time>1970-01-01T00:00:01.000Z</time></trkpt>
			<trkpt lat="57.685243" lon="32.960403"><time>1970-01-01T00:00:01.000Z</time></trkpt>
			<trkpt lat="57.685693" lon="32.961154"><time>1970-01-01T00:00:01.000Z</time></trkpt>
			<trkpt lat="57.686316" lon="32.963986"><time>1970-01-01T00:00:01.000Z</time></trkpt>
			<trkpt lat="57.686530" lon="32.965209"><time>1970-01-01T00:00:01.000Z</time></trkpt>
			<trkpt lat="57.686487" lon="32.966368"><time>1970-01-01T00:00:01.000Z</time></trkpt>
			<trkpt lat="57.686359" lon="32.967076"><time>1970-01-01T00:00:01.000Z</time></trkpt>
			<trkpt lat="57.685801" lon="32.967269"><time>1970-01-01T00:00:01.000Z</time></trkpt>
			<trkpt lat="57.685522" lon="32.967462"><time>1970-01-01T00:00:01.000Z</time></trkpt>
			<trkpt lat="57.685243" lon="32.967462"><time>1970-01-01T00:00:01.000Z</time></trkpt>
			<trkpt lat="57.684942" lon="32.967977"><time>1970-01-01T00:00:01.000Z</time></trkpt>
			<trkpt lat="57.684685" lon="32.968170"><time>1970-01-01T00:00:01.000Z</time></trkpt>
			<trkpt lat="57.684170" lon="32.968428"><time>1970-01-01T00:00:01.000Z</time></trkpt>
			<trkpt lat="57.684041" lon="32.968621"><time>1970-01-01T00:00:01.000Z</time></trkpt>
			<trkpt lat="57.683912" lon="32.968986"><time>1970-01-01T00:00:01.000Z</time></trkpt>
			<trkpt lat="57.683827" lon="32.969372"><time>1970-01-01T00:00:01.000Z</time></trkpt>
			<trkpt lat="57.683633" lon="32.969501"><time>1970-01-01T00:00:01.000Z</time></trkpt>
			<trkpt lat="57.683397" lon="32.969565"><time>1970-01-01T00:00:01.000Z</time></trkpt>
			<trkpt lat="57.683076" lon="32.969501"><time>1970-01-01T00:00:01.000Z</time></trkpt>
			<trkpt lat="57.682732" lon="32.969307"><time>1970-01-01T00:00:01.000Z</time></trkpt>
			<trkpt lat="57.682217" lon="32.969114"><time>1970-01-01T00:00:01.000Z</time></trkpt>
			<trkpt lat="57.681488" lon="32.968986"><time>1970-01-01T00:00:01.000Z</time></trkpt>
			<trkpt lat="57.681144" lon="32.968857"><time>1970-01-01T00:00:01.000Z</time></trkpt>
			<trkpt lat="57.680565" lon="32.968428"><time>1970-01-01T00:00:01.000Z</time></trkpt>
			<trkpt lat="57.680286" lon="32.968492"><time>1970-01-01T00:00:01.000Z</time></trkpt>
			<trkpt lat="57.679535" lon="32.967913"><time>1970-01-01T00:00:01.000Z</time></trkpt>
			<trkpt lat="57.679084" lon="32.967655"><time>1970-01-01T00:00:01.000Z</time></trkpt>
			<trkpt lat="57.678677" lon="32.967591"><time>1970-01-01T00:00:01.000Z</time></trkpt>
			<trkpt lat="57.678441" lon="32.967655"><time>1970-01-01T00:00:01.000Z</time></trkpt>
			<trkpt lat="57.677926" lon="32.967333"><time>1970-01-01T00:00:01.000Z</time></trkpt>
			<trkpt lat="57.677067" lon="32.967012"><time>1970-01-01T00:00:01.000Z</time></trkpt>
			<trkpt lat="57.676746" lon="32.967076"><time>1970-01-01T00:00:01.000Z</time></trkpt>
			<trkpt lat="57.676059" lon="32.967655"><time>1970-01-01T00:00:01.000Z</time></trkpt>
			<trkpt lat="57.675093" lon="32.967140"><time>1970-01-01T00:00:01.000Z</time></trkpt>
			<trkpt lat="57.674643" lon="32.967205"><time>1970-01-01T00:00:01.000Z</time></trkpt>
			<trkpt lat="57.674085" lon="32.967076"><time>1970-01-01T00:00:01.000Z</time></trkpt>
			<trkpt lat="57.673634" lon="32.967398"><time>1970-01-01T00:00:01.000Z</time></trkpt>
			<trkpt lat="57.673355" lon="32.967526"><time>1970-01-01T00:00:01.000Z</time></trkpt>
			<trkpt lat="57.672711" lon="32.968106"><time>1970-01-01T00:00:01.000Z</time></trkpt>
			<trkpt lat="57.672325" lon="32.968921"><time>1970-01-01T00:00:01.000Z</time></trkpt>
			<trkpt lat="57.672046" lon="32.970016"><time>1970-01-01T00:00:01.000Z</time></trkpt>
			<trkpt lat="57.671982" lon="32.970531"><time>1970-01-01T00:00:01.000Z</time></trkpt>
			<trkpt lat="57.671982" lon="32.971239"><time>1970-01-01T00:00:01.000Z</time></trkpt>
			<trkpt lat="57.672025" lon="32.971561"><time>1970-01-01T00:00:01.000Z</time></trkpt>
		</trkseg>
	</trk>
</gpx>